Portada
METAR-TAF:

METAR-TAF

Aeropuertos :

Valence, Francia

latitud: 44-54-58N, longitud: 4-58-06E, altitud: 160 m

Observación

El informe se hizo hace 9 horas y 44 minutos, a las 18:00 UTC
Viento 6 kt del norte, variando entre noroeste y norte-noreste
Temperatura 25°C
Humedad 74%
Presión 1010 hPa
Visibilidad 10 km o más
tormenta

METAR: LFLU 301800Z AUTO 36006KT 320V020 9999 TS FEW072/// BKN088/// BKN130/// ///CB 25/20 Q1010

Hora: 05:44 (03:44 UTC)


TAF: falta

Observaciones y pronósticos meteorológicos de más de 4000 aeropuertos (mensajes METAR y TAF).

Los puntos amarillos y rojos representan las estaciones disponibles.

Ponga el ratón en el punto deseado para ver el nombre de la estación.

Haga clic para ver las observaciones y los pronósticos meteorológicos.

Para cambiar el mapa : haga clic en los botones verdes con una cruz de color negro para hacer un zoom, en el botón verde con un guión para alejar o en las flechas verdes para mapas adyacentes.


METAR-TAF: